Location: Lake Arresoe
(56.0000°N, 12.5000°E)
Time: 07:58:46
(UTC+02:00)

Cosmos 1674 - Pass Details

Date: 03 August 2021
Orbit: 491 x 516 km, 82.5° (Epoch: 19 September)

Event Time Altitude Azimuth Distance (km) Brightness Sun altitude
Rises 03:10:17 0° 347° (NNW) 2,655 7.1 -12.7°
Reaches altitude 10° 03:12:26 10° 346° (NNW) 1,761 6.1 -12.5°
Maximum altitude 03:16:18 81° 259° (W) 531 2.6 -12.3°
Enters shadow 03:19:39 13° 174° (S) 1,543 4.6 -12.1°
